Location: ????
(33.1659°N, 35.6604°E)
Time: 09:32:17
(UTC+00:00)

CSL-04 Debris - Pass Details

Date: 20 September 2019
Orbit: 828 x 848 km, 99.0° (Epoch: 14 October)

Event Time Altitude Azimuth Distance (km) Brightness Sun altitude
Rises 15:51:05 0° 155° (SSE) 3,352 7.0 -3.7°
Reaches altitude 10° 15:53:27 10° 152° (SSE) 2,422 6.3 -4.2°
Maximum altitude 15:58:42 60° 73° (ENE) 947 4.2 -5.3°
Drops below altitude 10° 16:04:00 10° 355° (N) 2,440 6.7 -6.4°
Sets 16:06:24 0° 352° (N) 3,379 7.5 -6.9°
